Location: Boćki
(52.6512°N, 23.0459°E)
Time: 10:53:54
(UTC+02:00)

ISS - Pass Details

Date: 27 March 2019
Orbit: 408 x 410 km, 51.6° (Epoch: 21 April)

Event Time Altitude Azimuth Distance (km) Brightness Sun altitude
Rises 20:10:24 0° 267° (W) 2,337 0.9 -20.3°
Reaches altitude 10° 20:12:29 10° 266° (W) 1,475 -0.3 -20.5°
Enters shadow 20:15:16 58° 247° (WSW) 483 -3.4 -20.9°
